Location: ?ejkovice
(49.0137°N, 14.3821°E)
Time: 18:04:44
(UTC+00:00)

Lacrosse 5 rocket - Pass Details

Date: 23 May 2024
Orbit: 446 x 572 km, 57.0° (Epoch: 13 June)

Event Time Altitude Azimuth Distance (km) Brightness Sun altitude
Rises 01:20:49 0° 302° (WNW) 2,726 4.9 -13.5°
Reaches altitude 10° 01:23:11 10° 295° (WNW) 1,809 3.9 -13.3°
Maximum altitude 01:27:00 39° 226° (SW) 795 1.6 -13.0°
Drops below altitude 10° 01:30:40 10° 156° (SSE) 1,726 3.6 -12.6°
Sets 01:32:52 0° 149° (SSE) 2,583 4.5 -12.4°
